Total_Precipitation_Accumulation
0.57 0.56 0.53 0.49 0.47 0.49 0.54 0.67 0.83 0.80 0.64 0.54 0.54 0.55 0.55 0.53 0.54 0.49 0.42 0.50 0.52 0.54 0.58 0.61 0.60 0.60 0.60 0.64 0.72 0.83 0.95 1.01 1.06 1.13 1.21 1.25 1.31 1.44
0.45 0.45 0.44 0.43 0.42 0.45 0.49 0.55 0.66 0.76 0.69 0.52 0.45 0.46 0.48 0.46 0.47 0.40 0.37 0.45 0.46 0.46 0.46 0.48 0.50 0.54 0.57 0.58 0.62 0.68 0.81 0.91 0.98 1.06 1.15 1.22 1.28 1.36
0.36 0.36 0.38 0.37 0.37 0.38 0.41 0.45 0.50 0.57 0.59 0.47 0.40 0.37 0.37 0.36 0.35 0.32 0.29 0.28 0.29 0.34 0.35 0.36 0.39 0.43 0.48 0.51 0.54 0.59 0.67 0.76 0.86 0.95 1.06 1.13 1.17 1.17
0.33 0.33 0.36 0.37 0.38 0.38 0.38 0.39 0.40 0.41 0.43 0.40 0.32 0.27 0.24 0.23 0.22 0.21 0.19 0.19 0.18 0.22 0.24 0.26 0.29 0.34 0.38 0.41 0.44 0.48 0.54 0.60 0.67 0.74 0.81 0.87 0.93 0.99
0.33 0.35 0.36 0.37 0.38 0.36 0.34 0.31 0.30 0.28 0.29 0.32 0.25 0.18 0.15 0.14 0.14 0.12 0.12 0.12 0.12 0.14 0.16 0.17 0.22 0.27 0.31 0.36 0.38 0.37 0.38 0.43 0.49 0.56 0.62 0.69 0.77 0.83
0.37 0.37 0.37 0.36 0.34 0.30 0.27 0.24 0.23 0.22 0.22 0.24 0.24 0.19 0.15 0.10 0.12 0.13 0.12 0.10 0.09 0.08 0.10 0.10 0.13 0.15 0.17 0.21 0.26 0.28 0.29 0.34 0.42 0.53 0.62 0.68 0.71 0.76
0.45 0.42 0.36 0.32 0.26 0.22 0.20 0.19 0.18 0.19 0.25 0.30 0.27 0.21 0.15 0.13 0.12 0.12 0.14 0.12 0.09 0.07 0.06 0.05 0.05 0.06 0.07 0.11 0.17 0.24 0.32 0.41 0.53 0.68 0.81 0.90 0.92 0.93
0.37 0.33 0.29 0.26 0.21 0.19 0.17 0.17 0.21 0.28 0.36 0.37 0.31 0.22 0.12 0.09 0.11 0.16 0.21 0.25 0.19 0.07 0.08 0.06 0.04 0.05 0.07 0.12 0.20 0.28 0.37 0.47 0.57 0.68 0.78 0.83 0.87 0.94
0.27 0.22 0.18 0.14 0.12 0.09 0.09 0.14 0.18 0.23 0.26 0.25 0.20 0.13 0.12 0.14 0.25 0.36 0.32 0.30 0.20 0.07 0.09 0.09 0.05 0.07 0.09 0.15 0.26 0.30 0.37 0.47 0.56 0.65 0.71 0.75 0.76 0.80
0.15 0.11 0.09 0.07 0.07 0.09 0.15 0.19 0.13 0.08 0.07 0.07 0.10 0.14 0.17 0.18 0.25 0.35 0.32 0.24 0.12 0.06 0.09 0.16 0.11 0.11 0.10 0.14 0.24 0.26 0.30 0.39 0.49 0.56 0.61 0.63 0.63 0.68
0.08 0.07 0.09 0.08 0.09 0.21 0.28 0.23 0.11 0.03 0.03 0.07 0.13 0.13 0.12 0.11 0.13 0.29 0.39 0.41 0.26 0.08 0.07 0.13 0.10 0.12 0.15 0.17 0.22 0.26 0.28 0.34 0.41 0.46 0.48 0.49 0.52 0.57
0.06 0.06 0.07 0.08 0.16 0.28 0.25 0.20 0.11 0.06 0.09 0.07 0.03 0.02 0.02 0.03 0.09 0.25 0.59 0.85 0.60 0.30 0.10 0.23 0.25 0.30 0.43 0.22 0.21 0.24 0.25 0.31 0.35 0.38 0.39 0.41 0.44 0.47
0.10 0.06 0.04 0.12 0.23 0.23 0.16 0.08 0.09 0.16 0.12 0.04 0.01 0.01 0.01 0.02 0.04 0.09 0.31 0.85 1.05 0.61 0.18 0.55 0.67 0.41 0.57 0.36 0.24 0.26 0.34 0.46 0.51 0.50 0.48 0.44 0.43 0.48
0.11 0.07 0.09 0.19 0.17 0.10 0.05 0.05 0.11 0.10 0.03 0.03 0.04 0.03 0.03 0.04 0.04 0.06 0.10 0.26 0.57 0.68 0.38 0.72 1.07 0.69 0.77 0.60 0.37 0.35 0.39 0.61 0.86 0.91 0.84 0.73 0.60 0.53
0.13 0.17 0.18 0.12 0.06 0.02 0.02 0.04 0.04 0.02 0.07 0.13 0.11 0.06 0.04 0.05 0.06 0.09 0.10 0.14 0.22 0.28 0.33 0.47 0.80 0.81 0.93 0.90 0.64 0.49 0.56 0.68 1.02 1.29 1.19 0.95 0.72 0.59
0.19 0.18 0.11 0.04 0.02 0.01 0.02 0.01 0.01 0.03 0.12 0.21 0.17 0.09 0.05 0.07 0.10 0.17 0.28 0.30 0.36 0.29 0.30 0.37 0.52 0.78 0.85 0.68 0.77 0.71 0.76 1.08 1.27 1.47 1.32 1.04 0.81 0.66
0.22 0.11 0.05 0.03 0.03 0.02 0.02 0.01 0.01 0.02 0.06 0.12 0.18 0.17 0.12 0.11 0.13 0.23 0.41 0.52 0.57 0.47 0.40 0.34 0.31 0.39 0.54 0.63 0.68 0.64 0.78 1.05 1.28 1.41 1.19 1.01 0.93 0.83
0.15 0.08 0.07 0.06 0.06 0.05 0.05 0.04 0.03 0.05 0.11 0.20 0.24 0.25 0.27 0.27 0.27 0.29 0.46 0.61 0.62 0.53 0.49 0.40 0.36 0.35 0.33 0.35 0.56 0.78 0.85 1.03 1.14 1.08 0.81 0.80 0.90 0.80
0.10 0.09 0.10 0.09 0.08 0.07 0.09 0.10 0.09 0.08 0.17 0.29 0.35 0.37 0.39 0.37 0.39 0.43 0.50 0.56 0.54 0.46 0.37 0.31 0.39 0.62 0.63 0.40 0.33 0.63 0.95 1.00 0.85 0.76 0.64 0.68 0.90 0.83
0.10 0.11 0.10 0.09 0.10 0.12 0.14 0.15 0.16 0.15 0.20 0.30 0.36 0.40 0.46 0.51 0.49 0.50 0.54 0.57 0.52 0.35 0.19 0.12 0.23 0.60 0.97 0.87 0.66 0.63 0.71 0.85 0.87 0.85 0.67 0.57 0.65 0.63
0.11 0.10 0.08 0.10 0.13 0.16 0.18 0.20 0.24 0.28 0.32 0.42 0.44 0.46 0.53 0.60 0.55 0.49 0.48 0.40 0.33 0.27 0.20 0.12 0.13 0.31 0.58 0.66 0.54 0.44 0.54 0.61 0.73 1.01 0.94 0.76 0.57 0.44
0.12 0.12 0.10 0.12 0.17 0.22 0.24 0.27 0.30 0.32 0.37 0.44 0.48 0.52 0.56 0.63 0.59 0.45 0.35 0.31 0.26 0.24 0.21 0.12 0.08 0.14 0.31 0.51 0.45 0.34 0.35 0.33 0.30 0.31 0.55 0.88 1.22 1.30
0.14 0.15 0.14 0.17 0.22 0.26 0.29 0.31 0.35 0.37 0.44 0.54 0.57 0.55 0.54 0.49 0.39 0.34 0.30 0.30 0.30 0.25 0.21 0.16 0.11 0.14 0.21 0.30 0.36 0.30 0.23 0.20 0.16 0.19 0.36 0.42 0.58 0.85